Regional Weather Roundup
Issued by NWS

Home | Current Version | Previous Version | Text Only | Print | Product List | Glossary Off
Versions: 1 2 3 4 5 6 7 8 9 10 11 12 13 14 15 16 17 18 19 20 21 22 23 24 25 26 27 28 29 30 31 32 33 34 35 36 37 38 39 40 41 42 43 44 45 46 47 48 49 50

998
ASUS43 KMPX 231910
RWRMN
WEATHER ROUNDUP FOR MINNESOTA
NATIONAL WEATHER SERVICE TWIN CITIES/CHANHASSEN MN
100 PM CST MON JAN 23 2017


NOTE: "FAIR" INDICATES FEW OR NO CLOUDS BELOW 12,000 FEET WITH NO
SIGNIFICANT WEATHER AND/OR OBSTRUCTIONS TO VISIBILITY. N/A MEANS
CURRENT SKY AND/OR WEATHER CONDITIONS ARE NOT AVAILABLE.

MNZ060>063-068>070-232000-
   Twin Cities Metro

CITY           SKY/WX    TMP DP  RH WIND       PRES   REMARKS
TWIN CITIES    CLOUDY    34  28  79 W8        29.83S WCI  27
ST PAUL        CLOUDY    34  31  88 W10       29.84S WCI  26
CRYSTAL        CLOUDY    34  28  79 SW6       29.81F WCI  29
BLAINE         CLOUDY    36  36 100 W6        29.82S
LAKEVILLE      CLOUDY    32  30  93 W7        29.83S WCI  26
EDEN PRAIRIE   CLOUDY    34  29  82 CALM      29.82F
SOUTH ST PAUL  CLOUDY    35  32  90 W8        29.83S WCI  28
LAKE ELMO      CLOUDY    36  32  87 W8        29.82F
$$
MNZ001>005-007-008-013>017-022>024-027-028-232000-
   Northwest Minnesota

CITY           SKY/WX    TMP DP  RH WIND       PRES   REMARKS
BEMIDJI        CLOUDY    32  24  73 W3        29.76F
HALLOCK        CLOUDY    30  27  86 W12       29.75F WCI  21
ROSEAU         MOSUNNY   32  27  80 SW8       29.74F WCI  25
WARROAD        CLOUDY    32  28  86 SW7       29.74F WCI  26
THIEF RVR FALL CLOUDY    29  24  82 W15       29.78S WCI  18
CROOKSTON      CLOUDY    32  27  80 W8        29.80S WCI  25
FOSSTON        CLOUDY    30  27  86 W8        29.78S WCI  23
DETROIT LAKES  PTSUNNY   32  28  86 W7        29.79F WCI  26
MOORHEAD       CLOUDY    34  28  80 W5        29.81F WCI  30
PARK RAPIDS    CLOUDY    32  23  69 W9        29.77F WCI  24
MAHNOMEN       CLOUDY    31  28  88 W9        29.78S WCI  23
$$
MNZ006-009>011-018-025>026-232000-
   North Central Minnesota

CITY           SKY/WX    TMP DP  RH WIND       PRES   REMARKS
BAUDETTE       CLOUDY    33  28  81 SW9       29.74F WCI  25
FLAG ISLAND    CLOUDY    32  30  93 CALM      29.73F
INTL FALLS     CLOUDY    34  29  82 SW8       29.75S WCI  27
WASKISH        CLOUDY    32  30  93 SW6       29.76F WCI  26
BIG FORK       CLOUDY    34  30  86 W5        29.77S WCI  30
LONGVILLE      CLOUDY    30  28  93 W6        29.78F WCI  24
GRAND RAPIDS   CLOUDY    33  29  85 W6        29.79F WCI  28
CRANE LAKE     CLOUDY    34  32  93 CALM      29.77S FOG
ORR            CLOUDY    34  30  86 CALM      29.73S
COOK           CLOUDY    34  32  93 W3        29.75S
WALKER         CLOUDY    31  24  75 W5        29.77F WCI  26
$$
MNZ012-019>021-037-232000-
   Northeast Minnesota

CITY           SKY/WX    TMP DP  RH WIND       PRES   REMARKS
DULUTH         CLOUDY    38  32  79 CALM      29.74F
ELY            CLOUDY    34  34 100 CALM      29.73F
HIBBING        CLOUDY    33  33 100 W6        29.75S WCI  28
EVELETH        CLOUDY    35  33  92 W5        29.76S WCI  31
DULUTH HARBOR  CLOUDY    39  36  87 CALM      29.78F
TWO HARBORS    CLOUDY    41  36  81 CALM      29.73F
SILVER BAY     CLOUDY    39  34  81 CALM      29.73F
GRAND MARAIS     N/A     38  35  89 S3        29.77S
G MARAIS ARPRT CLOUDY    34  28  80 CALM      29.73S
$$
MNZ029>031-032-039>041-046>048-054>057-064-232000-
   West Central Minnesota

CITY           SKY/WX    TMP DP  RH WIND       PRES   REMARKS
FERGUS FALLS   CLOUDY    32  27  80 W3        29.84F
WHEATON          N/A     32  25  74 W5        29.84S WCI  27
MORRIS         CLOUDY    32  28  86 NW5       29.81F WCI  27
ALEXANDRIA     CLOUDY    31  27  85 W6        29.81F WCI  25
ELBOW LAKE     CLOUDY    31  26  82 NW5       29.81F HAZE    WCI  26
WADENA         CLOUDY    30  25  80 W3        29.79F
GLENWOOD       CLOUDY    30  28  93 W6        29.81F WCI  24
APPLETON       CLOUDY    34  27  75 CALM      29.83F
ORTONVILLE     CLOUDY    32  27  80 CALM      29.82F
MADISON        CLOUDY    36  28  75 CALM      29.83F
WILLMAR        CLOUDY    34  30  86 CALM      29.83F
$$
MNZ033>034-036-042>043-049>051-058-059-232000-
   Central Minnesota

CITY           SKY/WX    TMP DP  RH WIND       PRES   REMARKS
ST CLOUD       CLOUDY    32  29  88 NW10      29.81F WCI  24
SAUK CENTRE    CLOUDY    31  27  83 W6        29.82S WCI  25
PAYNESVILLE    CLOUDY    32  30  92 W7        29.82F WCI  26
AITKIN         CLOUDY    36  28  75 W5        29.78S
PINE RIVER     CLOUDY    32  27  80 CALM      29.82F
BRAINERD       CLOUDY    31  29  92 W5        29.80S WCI  26
STAPLES        CLOUDY    30  25  80 NW6       29.80S WCI  24
LONG PRAIRIE   CLOUDY    32  27  80 CALM      29.81F
LITTLE FALLS   CLOUDY    32  28  86 W3        29.81F
LITCHFIELD     CLOUDY    34  28  80 NW5       29.83F WCI  30
BUFFALO        CLOUDY    33  29  88 W6        29.83F WCI  27
MAPLE LAKE     CLOUDY    33  31  91 W6        29.83F WCI  28
HUTCHINSON     CLOUDY    33  29  85 W7        29.84F WCI  27
$$
MNZ037-044-045-052-053-232000-
   East Central Minnesota

CITY           SKY/WX    TMP DP  RH WIND       PRES   REMARKS
PRINCETON      CLOUDY    36  32  87 W5        29.81F
MORA           LGT RAIN  34  32  93 W5        29.82S WCI  30
CAMBRIDGE      LGT RAIN  36  36 100 SW3       29.79F
RUSH CITY      LGT RAIN  34  32  93 W5        29.81S WCI  30
MOOSE LAKE     CLOUDY    34  32  93 W5        29.77R WCI  30
HINCKLEY       LGT RAIN  36  34  93 SW6       29.79F
CLOQUET        CLOUDY    36  34  93 SW6       29.76S
MCGREGOR       CLOUDY    34  32  93 W5        29.78F WCI  30
$$
MNZ071>073-080-081-089-090-097-098-232000-
   Southwest Minnesota

CITY           SKY/WX    TMP DP  RH WIND       PRES   REMARKS
MONTEVIDEO     CLOUDY    34  34 100 N3        29.84F
GRANITE FALLS  CLOUDY    34  30  86 NW3       29.84F
CANBY          CLOUDY    32  28  86 CALM      29.84F
MARSHALL       CLOUDY    31  27  85 NW5       29.84F WCI  26
REDWOOD FALLS  CLOUDY    33  28  81 NW6       29.83F WCI  28
OLIVIA         CLOUDY    32  30  93 NW6       29.83F FOG     WCI  26
PIPESTONE      CLOUDY    30  28  93 CALM      29.81S FOG
WINDOM         CLOUDY    32  28  86 NW6       29.82F WCI  26
WORTHINGTON    CLOUDY    30  28  92 NW8       29.84S WCI  22
JACKSON        CLOUDY    32  28  86 NW6       29.83F WCI  26
TRACY          CLOUDY    32  29  90 W3        29.83F
SLAYTON        CLOUDY    29  28  94 NW5       29.82F FOG     WCI  24
$$
MNZ065>067-074>077-082>085-091>093-232000-
   South Central Minnesota

CITY           SKY/WX    TMP DP  RH WIND       PRES   REMARKS
MANKATO        CLOUDY    33  28  81 W7        29.84F WCI  27
NEW ULM        CLOUDY    32  28  86 NW8       29.84F WCI  25
ST JAMES       CLOUDY    32  30  93 NW6       29.85F WCI  26
FAIRMONT       MIX PCPN  32  30  92 N7        29.84F FOG     WCI  26
GLENCOE        CLOUDY    34  32  92 W8        29.82F WCI  27
OWATONNA       CLOUDY    32  28  86 W6        29.83F WCI  26
WASECA         CLOUDY    32  30  93 W8        29.84F WCI  25
ALBERT LEA     CLOUDY    34  28  80 NW6       29.82F WCI  29
$$
MNZ078>079-086>088-094>096-232000-
   Southeast Minnesota

CITY           SKY/WX    TMP DP  RH WIND       PRES   REMARKS
ROCHESTER      LGT SNOW  32  31  96 W12       29.82F FOG     WCI  23
RED WING       LGT RAIN  36  34  93 NW3       29.82F
STANTON        CLOUDY    34  30  86 W6        29.83R WCI  29
DODGE CENTER   MOSUNNY   32  30  93 CALM      29.82S
WINONA         CLOUDY    36  34  93 NW3       29.82F
AUSTIN         CLOUDY    34  27  75 NW3       29.82F
PRESTON        CLOUDY    33  31  92 W9        29.82S WCI  25
$$
ABBREVIATIONS USED IN REMARKS
   TC - TEMPERATURES IN CELSIUS
  WCI - WIND CHILL INDEX
   HX - HEAT INDEX
  VSB - VISIBILITY
$$




USA.gov is the U.S. government's official web portal to all federal, state and local government web resources and services.